Location: Avully
(45.9633°N, 6.0228°E)
Time: 20:12:45
(UTC+00:00)

Cosmos 1242 Rocket - Pass Details

Date: 23 May 2024
Orbit: 322 x 337 km, 81.1° (Epoch: 14 June)

Event Time Altitude Azimuth Distance (km) Brightness Sun altitude
Exits shadow 02:45:29 11° 266° (W) 1,317 4.3 -10.4°
Maximum altitude 02:46:43 13° 292° (WNW) 1,204 4.3 -10.2°
Drops below altitude 10° 02:48:10 10° 321° (NW) 1,363 4.9 -10.0°
Sets 02:51:00 0° 352° (N) 2,222 6.5 -9.7°
